+ View the NASA Portal
+ Center for Near-Earth Object Studies
IMPORTANT:
The SSD Announcement email list is now available. Major changes are coming in the near future, including possible hostname and/or URL changes. To be notified of such changes, subscribe to this email list.
Please visit
this page
for more details.
Don't show this message again
JPL Small-Body Database Browser
Search:
[
help
]
214353 (2005 JM167)
Classification:
Main-belt Asteroid
SPK-ID:
2214353
[
Ephemeris
|
Orbit Diagram
|
Orbital Elements
|
Mission Design
|
Physical Parameters
|
Discovery Circumstances
|
Close-Approach Data
]
[ show orbit diagram ]
Orbital Elements at Epoch 2458600.5 (2019-Apr-27.0) TDB
Reference:
JPL 15
(heliocentric ecliptic J2000)
Element
Value
Uncertainty (1-sigma)
Units
e
.1731880789525148
3.4876e-08
a
2.59052660519512
1.6607e-08
au
q
2.141878278965998
9.216e-08
au
i
7.541206232565252
4.6162e-06
deg
node
222.3239104676441
3.7448e-05
deg
peri
25.99235271981272
4.1715e-05
deg
M
119.4172271529298
2.0726e-05
deg
t
p
2458095.321342759816
(2017-Dec-07.82134276)
8.4639e-05
TDB
period
1522.932000200982
4.17
1.4644e-05
4.009e-08
d
yr
n
.2363861288307624
2.2731e-09
deg/d
Q
3.039174931424243
1.9483e-08
au
Orbit Determination Parameters
# obs. used (total)
359
data-arc span
9568 days (26.20 yr)
first obs. used
1993-09-15
last obs. used
2019-11-26
planetary ephem.
DE431
SB-pert. ephem.
SB431-N16
condition code
0
norm. resid. RMS
.54351
source
ORB
producer
Otto Matic
solution date
2019-Dec-04 16:57:56
Additional Information
Earth MOID
= 1.1312 au
Jupiter MOID
= 1.99146 au
T_jup
= 3.386
[ show covariance matrix ]
[
Ephemeris
|
Orbit Diagram
|
Orbital Elements
|
Mission Design
|
Physical Parameters
|
Discovery Circumstances
|
Close-Approach Data
]
Physical Parameter Table
Parameter
Symbol
Value
Units
Sigma
Reference
Notes
absolute magnitude
H
16.1
n/a
MPO454539
214353 (2005 JM167)
Discovered 2005-May-12 by LINEAR at Socorro
Reference:
20090509/Numbers.arc
Last Updated:
2009-05-11
[ show close-approach data ]
[
Ephemeris
|
Orbit Diagram
|
Orbital Elements
|
Mission Design
|
Physical Parameters
|
Discovery Circumstances
|
Close-Approach Data
]
2019-Dec-11 23:24 UT
(server date/time)
Site Manager:
Ryan S. Park
Webmaster
:
Alan B. Chamberlin